Location: Colonia Mina de C?rbuni
(46.1667°N, 22.7167°E)
Time: 00:42:16
(UTC+00:00)

Tiros 1 - All Passes

Search period start: 17 April 2024 00:00
Search period end: 27 April 2024 00:00
Orbit: 625 x 657 km, 48.4° (Epoch: 16 April)

Date Brightness Start Highest point End Pass type
(mag) Time Alt. Az. Time Alt. Az. Time Alt. Az.
17 Apr - 00:40:16 10° WSW 00:44:53 76° SSE 00:49:29 10° ENE visible
17 Apr - 02:22:29 10° W 02:27:05 66° N 02:31:40 10° E visible
17 Apr - 04:04:44 10° WNW 04:09:21 90° SSW 04:13:58 10° ESE daylight
17 Apr - 05:47:04 10° W 05:51:06 30° SW 05:55:07 10° SSE daylight
17 Apr - 23:22:47 10° SW 23:27:09 41° SSE 23:31:29 10° ENE visible
18 Apr - 01:04:26 10° W 01:09:03 78° NNW 01:13:40 10° ENE visible
18 Apr - 02:46:46 10° WNW 02:51:22 69° N 02:55:58 10° E visible
18 Apr - 04:28:56 10° WNW 04:33:27 59° SSW 04:37:58 10° SE daylight
18 Apr - 06:12:03 10° W 06:14:50 16° SW 06:17:38 10° S daylight
18 Apr - 22:06:13 10° S 22:09:37 20° SE 22:13:01 10° E night (unlit)
18 Apr - 23:46:33 10° WSW 23:51:09 70° SSE 23:55:44 10° ENE visible
19 Apr - 01:28:43 10° W 01:33:19 66° N 01:37:54 10° E visible
19 Apr - 03:10:58 10° WNW 03:15:36 86° NNE 03:20:12 10° ESE daylight
19 Apr - 04:53:15 10° W 04:57:24 34° SW 05:01:32 10° SSE daylight
19 Apr - 22:29:09 10° SSW 22:33:26 37° SSE 22:37:42 10° E visible
20 Apr - 00:10:39 10° WSW 00:15:18 82° NNW 00:19:55 10° ENE visible
20 Apr - 01:52:59 10° WNW 01:57:36 67° N 02:02:10 10° E visible
20 Apr - 03:35:09 10° WNW 03:39:43 65° SSW 03:44:16 10° SE daylight
20 Apr - 05:18:02 10° W 05:21:11 18° SW 05:24:18 10° S daylight
20 Apr - 21:12:47 10° S 21:15:56 18° SE 21:19:05 10° E night (unlit)
20 Apr - 22:52:48 10° SW 22:57:24 64° SSE 23:01:58 10° ENE visible
21 Apr - 00:34:54 10° W 00:39:32 68° N 00:44:07 10° ENE visible
21 Apr - 02:17:11 10° WNW 02:21:50 81° NNE 02:26:26 10° ESE visible
21 Apr - 03:59:26 10° W 04:03:41 38° SSW 04:07:56 10° SE daylight
21 Apr - 21:35:31 10° SSW 21:39:42 34° SE 21:43:53 10° E night (unlit)
21 Apr - 23:16:51 10° WSW 23:21:30 86° NNW 23:26:09 10° ENE visible
22 Apr - 00:59:11 10° W 01:03:48 66° N 01:08:23 10° E visible
22 Apr - 02:41:22 10° WNW 02:45:58 71° SSW 02:50:32 10° ESE visible
22 Apr - 04:24:05 10° W 04:27:29 21° SW 04:30:53 10° S daylight
22 Apr - 20:19:24 10° S 20:22:15 16° SE 20:25:03 10° E night (unlit)
22 Apr - 21:59:03 10° SW 22:03:38 59° SSE 22:08:12 10° ENE visible
22 Apr - 23:41:05 10° W 23:45:43 69° N 23:50:19 10° ENE visible
23 Apr - 01:23:24 10° WNW 01:28:03 78° NNE 01:32:38 10° E visible
23 Apr - 03:05:37 10° WNW 03:09:57 42° SSW 03:14:17 10° SE daylight
23 Apr - 20:41:53 10° SSW 20:45:58 30° SE 20:50:02 10° E night (unlit)
23 Apr - 22:23:02 10° WSW 22:27:43 89° SSE 22:32:22 10° ENE visible
24 Apr - 00:05:22 10° W 00:09:59 66° N 00:14:35 10° E visible
24 Apr - 01:47:34 10° WNW 01:52:11 77° SSW 01:56:47 10° ESE visible
24 Apr - 03:30:08 10° W 03:33:47 23° SW 03:37:24 10° SSE daylight
24 Apr - 19:26:07 10° SSE 19:28:32 14° SE 19:30:57 10° ESE night (unlit)
24 Apr - 21:05:19 10° SW 21:09:52 53° SSE 21:14:23 10° ENE night (unlit)
24 Apr - 22:47:15 10° W 22:51:55 71° N 22:56:32 10° ENE visible
25 Apr - 00:29:35 10° WNW 00:34:14 74° N 00:38:50 10° E visible
25 Apr - 02:11:47 10° WNW 02:16:12 47° SSW 02:20:36 10° SE visible
25 Apr - 03:55:55 10° WSW 03:57:25 11° SW 03:58:55 10° SSW daylight
25 Apr - 19:48:17 10° SSW 19:52:13 27° SE 19:56:09 10° E night (unlit)
25 Apr - 21:29:14 10° WSW 21:33:55 83° SSE 21:38:34 10° ENE night (unlit)
25 Apr - 23:11:31 10° W 23:16:10 65° N 23:20:45 10° E visible
26 Apr - 00:53:45 10° WNW 00:58:24 83° SSW 01:03:00 10° ESE visible
26 Apr - 02:36:13 10° W 02:40:03 26° SW 02:43:51 10° SSE visible
26 Apr - 18:32:58 10° SSE 18:34:50 12° SE 18:36:40 10° ESE visible
26 Apr - 20:11:35 10° SW 20:16:05 48° SSE 20:20:34 10° ENE visible
26 Apr - 21:53:24 10° W 21:58:05 74° N 22:02:43 10° ENE visible
26 Apr - 23:35:45 10° WNW 23:40:24 72° N 23:45:01 10° E visible
